This is the latest recevied weather packets stored in our database for station/object APPOWX. If no packets are shown the sender has not sent any weather packets the latest 10 day(s).
| Time | Temp. | Humidity | Pressure | Rain* | Wind** | Luminosity | Snow |
|---|---|---|---|---|---|---|---|
| 1778250006 | 15° C | 50% | 1019.8 hPa | 0 mm | - | - | - |
| 1778249945 | 15° C | 47% | 1019.7 hPa | 0 mm | - | - | - |
| 1778249886 | 15.56° C | 47% | 1019.8 hPa | 0 mm | - | - | - |
| 1778249826 | 16.11° C | 45% | 1019.8 hPa | 0 mm | - | - | - |
| 1778249766 | 15.56° C | 48% | 1019.7 hPa | 0 mm | - | - | - |
| 1778249705 | 15° C | 54% | 1019.9 hPa | 0 mm | - | - | - |
| 1778249646 | 14.44° C | 60% | 1019.8 hPa | 0 mm | - | - | - |
| 1778249586 | 14.44° C | 53% | 1019.9 hPa | 0 mm | - | - | - |
| 1778249526 | 14.44° C | 54% | 1019.8 hPa | 0 mm | - | - | - |
| 1778249465 | 14.44° C | 59% | 1019.8 hPa | 0 mm | - | - | - |
| 1778249406 | 13.89° C | 55% | 1019.9 hPa | 0 mm | - | - | - |
| 1778249346 | 13.33° C | 62% | 1019.8 hPa | 0 mm | - | - | - |
| 1778249285 | 13.33° C | 55% | 1019.6 hPa | 0 mm | - | - | - |
| 1778249225 | 13.33° C | 61% | 1019.6 hPa | 0 mm | - | - | - |
| 1778249165 | 13.89° C | 54% | 1019.5 hPa | 0 mm | - | - | - |
| 1778249106 | 13.89° C | 56% | 1019.7 hPa | 0 mm | - | - | - |
| 1778249046 | 14.44° C | 55% | 1019.9 hPa | 0 mm | - | - | - |
| 1778248985 | 14.44° C | 67% | 1019.9 hPa | 0 mm | - | - | - |
| 1778248925 | 13.89° C | 64% | 1019.6 hPa | 0 mm | - | - | - |
| 1778248865 | 13.89° C | 56% | 1019.7 hPa | 0 mm | - | - | - |
| 1778248804 | 13.89° C | 54% | 1019.9 hPa | 0 mm | - | - | - |
| 1778248745 | 13.89° C | 57% | 1019.7 hPa | 0 mm | - | - | - |
| 1778248685 | 13.89° C | 55% | 1020 hPa | 0 mm | - | - | - |
| 1778248625 | 13.33° C | 73% | 1019.8 hPa | 0 mm | - | - | - |
| 1778248564 | 13.33° C | 63% | 1019.7 hPa | 0 mm | - | - | - |
* Rain latest hour (hover to see other rain measurements)
** Current wind speed in m/s (hover to see current wind gust speed)